Burns Municipal Airport
KBNO : now visible

Airfield :











YOU CAN JOIN US ON...

 
LOGIN :

Register | Disclaimer

   EN    FR    IT 

 









Legend :    VFR   Marginal VFR   IFR   Intensive IFR   Very Intensive IFR
Visi :
Ceiling :
>= 8 km
>= 3000ft
5 to 8 km
1000 to 3000 ft
1500m to 5 km
500 to 1000 ft
800 to 1500m
200 to 500 ft
< 800m
< 200 ft
Symbols :   Thunderstorms  Fog  Heavy snow  Heavy precipitations  Wind > 20 kt






- Airport Elevation : 4148 ft


KBNO - Burns Municipal

CURRENT METAR :
  • 261653Z AUTO 28006KT 10SM FEW028 BKN036 OVC065 14/06 A3018 RMK AO2 SLP202 T01440061 $

EXPIRED METARs :
  • 261553Z AUTO 26004KT 10SM BKN050 13/06 A3017 RMK AO2 SLP200 T01280061 $
  • 261453Z AUTO 30004KT 10SM OVC070 11/06 A3016 RMK AO2 SLP199 T01110056 53014 $

TAF KBNO
Valid from the 26 at 12:00 until the 27 at 12:00 UTC


261120Z 2612/2712 24010KT P6SM OVC040
FM261800 24015G25KT P6SM BKN100
FM270200 29010KT P6SM SKC
KZLC FIR / North America



MET'MAP, your aeronautical weather chart ! - Copyright ORBIFLY December 2007 - Disclaimer

ORBIFLY MET'MAP TEAM :

Programming & Development : Alexandra Zaïnal
Concept & original design : Baudouin d'Aumeries
Assistance for programming : Marc-Olivier Méhu
Technical & hardware support : Manuel Goepfert

Contact : metmap@orbifly.com




SOURCES & CREDITS :

   NOAA       Earth
Advisory